Daviess Cnty AP, Washington,, IN

10:01 AM EST on December 07, 2019 (GMT -0500)
Daviess County

Weather History for KDCY - October, 2019

Change the Weather History Date:

Thursday, October 3, 2019

  Actual Average (KLWV) Record (KLWV)
Temperature  
Mean Temperature 72 °F -  
Max Temperature 82 °F 72 °F 90 °F (2018)
Min Temperature 60 °F 46 °F 30 °F (2004)
Cooling Degree Days 6    
Growing Degree Days 22 (Base 50)    
Moisture  
Dew Point 62 °F    
Average Humidity 65    
Maximum Humidity 73    
Minimum Humidity 53    
Precipitation  
Precipitation 0.00 in - - ()
Sea Level Pressure  
Sea Level Pressure 30.03 in    
Wind  
Wind Speed 8 mph (WNW)    
Max Wind Speed 14 mph    
Max Gust Speed 18 mph    
Visibility 10 miles    
Events      
Averages and records for this station are not official NWS values.
T = Trace of Precipitation, MM = Missing Value Source: NWS Daily Summary

Daily Weather History Graph

Daily Weather History Graph

Search for Another Location

Airport or City:

Astronomy

Oct. 03, 2019 Rise Set
Actual Time 7:46 AM EDT 7:28 PM EDT
Civil Twilight 7:19 AM EDT 7:54 PM EDT
Nautical Twilight 6:48 AM EDT 8:25 PM EDT
Astronomical Twilight 6:17 AM EDT 8:56 PM EDT
Moon 1:13 PM EDT (10/3) 11:10 PM EDT (10/3)
Length of Visible Light 12h 35m
Length of Day
11h 42m
Waxing Crescent, 29% of the Moon is Illuminated
Oct 3
Waxing Crescent
Oct 5
First Quarter
Oct 13
Full
Oct 21
Last Quarter
Oct 27
New

Hourly Weather History & Observations

Time (EDT) Temp. Heat Index Dew Point Humidity Pressure Visibility Wind Dir Wind Speed Gust Speed Precip Events Conditions
12:15 AM 74.1 °F - 62.8 °F 68% 29.94 in 10.0 mi SW 5.8 mph - N/A   Clear
12:35 AM 77.4 °F - 62.6 °F 60% 29.95 in 10.0 mi SW 8.1 mph - N/A   Clear
12:55 AM 77.5 °F - 62.8 °F 60% 29.95 in 10.0 mi SW 6.9 mph - N/A   Clear
1:15 AM 77.0 °F - 63.0 °F 62% 29.95 in 10.0 mi SW 8.1 mph - N/A   Clear
1:35 AM 77.0 °F - 63.0 °F 62% 29.95 in 10.0 mi SW 8.1 mph - N/A   Clear
2:00 AM 76.1 °F - 63.0 °F 64% 29.94 in 10.0 mi SW 8.1 mph - N/A   Clear
2:15 AM 75.9 °F - 63.0 °F 64% 29.94 in 10.0 mi SW 8.1 mph - N/A   Clear
2:40 AM 75.6 °F - 62.8 °F 64% 29.94 in 10.0 mi SW 6.9 mph - N/A   Clear
3:15 AM 74.8 °F - 62.8 °F 66% 29.94 in 10.0 mi SW 8.1 mph - N/A   Clear
3:35 AM 74.7 °F - 62.8 °F 66% 29.94 in 10.0 mi SW 6.9 mph - N/A   Clear
3:55 AM 74.1 °F - 62.8 °F 68% 29.94 in 10.0 mi SW 6.9 mph - N/A   Clear
4:15 AM 74.1 °F - 62.8 °F 68% 29.95 in 10.0 mi SW 6.9 mph - N/A   Clear
4:30 AM 73.6 °F - 62.8 °F 69% 29.95 in 10.0 mi SW 6.9 mph - N/A   Clear
4:50 AM 72.9 °F - 62.6 °F 70% 29.95 in 10.0 mi SW 6.9 mph - N/A   Clear
5:20 AM 73.2 °F - 62.6 °F 69% 29.96 in 10.0 mi SW 6.9 mph - N/A   Clear
5:35 AM 73.6 °F - 62.6 °F 68% 29.96 in 10.0 mi SW 8.1 mph - N/A   Clear
6:00 AM 73.2 °F - 62.6 °F 69% 29.97 in 10.0 mi SW 8.1 mph - N/A   Clear
6:20 AM 72.9 °F - 62.6 °F 70% 29.97 in 10.0 mi SW 6.9 mph - N/A   Clear
6:35 AM 72.7 °F - 62.6 °F 71% 29.97 in 10.0 mi SW 6.9 mph - N/A   Clear
6:50 AM 72.0 °F - 62.6 °F 72% 29.97 in 10.0 mi SW 6.9 mph - N/A   Clear
7:15 AM 72.3 °F - 62.6 °F 71% 29.98 in 10.0 mi SW 8.1 mph - N/A   Clear
7:35 AM 72.3 °F - 62.6 °F 71% 29.98 in 10.0 mi SW 9.2 mph - N/A   Clear
7:55 AM 72.1 °F - 62.6 °F 72% 29.98 in 10.0 mi SW 6.9 mph - N/A   Clear
8:15 AM 71.8 °F - 62.8 °F 73% 29.99 in 10.0 mi WSW 6.9 mph - N/A   Clear
8:35 AM 72.9 °F - 63.1 °F 71% 30.00 in 10.0 mi WSW 6.9 mph - N/A   Clear
8:55 AM 73.4 °F - 63.5 °F 71% 30.00 in 10.0 mi WSW 8.1 mph - N/A   Clear
9:15 AM 74.3 °F - 63.9 °F 70% 30.00 in 10.0 mi WSW 9.2 mph - N/A   Clear
9:30 AM 75.2 °F - 63.9 °F 68% 30.01 in 10.0 mi WSW 8.1 mph - N/A   Clear
9:55 AM 76.8 °F - 64.8 °F 66% 30.02 in 10.0 mi West 9.2 mph - N/A   Clear
10:10 AM 77.5 °F - 64.8 °F 65% 30.02 in 10.0 mi West 11.5 mph - N/A   Clear
10:35 AM 79.0 °F - 65.8 °F 64% 30.02 in 10.0 mi West 6.9 mph - N/A   Clear
10:55 AM 79.9 °F - 66.6 °F 64% 30.03 in 10.0 mi WNW 6.9 mph - N/A   Clear
11:15 AM 81.5 °F 84.2 °F 67.6 °F 63% 30.03 in 10.0 mi WNW 9.2 mph 16.1 mph N/A   Clear
11:35 AM 81.3 °F 84.0 °F 67.8 °F 63% 30.03 in 10.0 mi NNW 9.2 mph - N/A   Clear
11:55 AM 81.7 °F 84.5 °F 68.2 °F 63% 30.03 in 10.0 mi NNW 6.9 mph - N/A   Scattered Clouds
12:15 PM 82.0 °F 85.1 °F 68.4 °F 63% 30.03 in 10.0 mi NW 6.9 mph - N/A   Mostly Cloudy
12:35 PM 81.1 °F 84.0 °F 68.5 °F 65% 30.04 in 10.0 mi WNW 9.2 mph - N/A   Overcast
12:50 PM 80.2 °F 83.1 °F 68.9 °F 68% 30.05 in 10.0 mi NW 13.8 mph 17.3 mph N/A   Overcast
1:15 PM 79.9 °F - 68.4 °F 68% 30.05 in 10.0 mi NW 10.4 mph - N/A   Overcast
1:50 PM 78.1 °F - 68.0 °F 71% 30.06 in 10.0 mi NW 8.1 mph - N/A   Overcast
2:15 PM 78.8 °F - 68.0 °F 69% 30.05 in 10.0 mi NW 9.2 mph 17.3 mph N/A   Overcast
2:35 PM 81.5 °F 84.4 °F 68.2 °F 64% 30.05 in 10.0 mi NW 8.1 mph - N/A   Overcast
2:55 PM 80.8 °F 83.5 °F 68.2 °F 65% 30.05 in 10.0 mi NNW 9.2 mph - N/A   Overcast
3:15 PM 80.4 °F 82.8 °F 67.3 °F 64% 30.05 in 10.0 mi NW 10.4 mph - N/A   Overcast
3:35 PM 80.6 °F 82.8 °F 66.4 °F 62% 30.05 in 10.0 mi WNW 13.8 mph - N/A   Overcast
3:55 PM 82.2 °F 84.4 °F 66.2 °F 58% 30.05 in 10.0 mi WNW 10.4 mph 16.1 mph N/A   Mostly Cloudy
4:15 PM 82.8 °F 84.5 °F 65.3 °F 55% 30.05 in 10.0 mi WNW 10.4 mph - N/A   Scattered Clouds
4:35 PM 80.8 °F 82.5 °F 64.6 °F 58% 30.05 in 10.0 mi West 5.8 mph - N/A   Scattered Clouds
4:55 PM 81.3 °F 82.9 °F 64.0 °F 56% 30.05 in 10.0 mi WNW 9.2 mph - N/A   Scattered Clouds
5:15 PM 81.5 °F 82.9 °F 64.0 °F 55% 30.05 in 10.0 mi NW 11.5 mph 18.4 mph N/A   Scattered Clouds
5:35 PM 80.8 °F 82.0 °F 62.8 °F 54% 30.06 in 10.0 mi NNW 9.2 mph 17.3 mph N/A   Clear
5:55 PM 79.7 °F - 61.9 °F 54% 30.07 in 10.0 mi NW 11.5 mph 17.3 mph N/A   Clear
6:15 PM 78.8 °F - 60.3 °F 53% 30.08 in 10.0 mi NNW 11.5 mph 17.3 mph N/A   Clear
6:35 PM 77.0 °F - 59.7 °F 55% 30.08 in 10.0 mi NNW 10.4 mph - N/A   Clear
6:55 PM 75.6 °F - 59.5 °F 57% 30.10 in 10.0 mi NNW 8.1 mph - N/A   Clear
7:15 PM 73.4 °F - 59.2 °F 61% 30.10 in 10.0 mi NNW 6.9 mph - N/A   Clear
7:35 PM 70.9 °F - 59.5 °F 67% 30.10 in 10.0 mi NNW 5.8 mph - N/A   Clear
7:55 PM 69.8 °F - 59.0 °F 68% 30.11 in 10.0 mi NW 6.9 mph - N/A   Clear
8:15 PM 69.8 °F - 57.4 °F 65% 30.12 in 10.0 mi NNW 10.4 mph - N/A   Clear
8:35 PM 68.4 °F - 56.3 °F 65% 30.12 in 10.0 mi NNW 10.4 mph - N/A   Clear
8:55 PM 67.1 °F - 55.6 °F 66% 30.13 in 10.0 mi NW 8.1 mph - N/A   Clear
9:15 PM 66.2 °F - 54.9 °F 67% 30.14 in 10.0 mi NNW 8.1 mph - N/A   Clear
9:35 PM 65.3 °F - 54.5 °F 68% 30.15 in 10.0 mi NNW 8.1 mph - N/A   Clear
9:55 PM 64.2 °F - 54.5 °F 71% 30.15 in 10.0 mi NNW 8.1 mph - N/A   Clear
10:15 PM 64.0 °F - 54.0 °F 70% 30.15 in 10.0 mi NNW 10.4 mph - N/A   Clear
10:35 PM 64.4 °F - 53.4 °F 67% 30.16 in 10.0 mi NNW 8.1 mph - N/A   Clear
10:55 PM 63.3 °F - 53.6 °F 71% 30.17 in 10.0 mi NNW 6.9 mph - N/A   Clear
11:15 PM 62.2 °F - 53.6 °F 73% 30.17 in 10.0 mi NNW 6.9 mph - N/A   Clear
11:35 PM 61.9 °F - 52.2 °F 70% 30.18 in 10.0 mi NNW 9.2 mph - N/A   Clear
11:55 PM 60.8 °F - 50.9 °F 70% 30.19 in 10.0 mi NNW 9.2 mph - N/A   Clear